Szolnok, Hungary

7:15 PM CET on February 19, 2018 (GMT +0100)
Szolnok

Weather History for LHSN - January, 2013

Change the Weather History Date:

Wednesday, January 23, 2013

  Actual Average (LHBP) Record (LHBP)
Temperature  
Mean Temperature 30 °F -  
Max Temperature 33 °F 35 °F 113 °F (2002)
Min Temperature 28 °F 22 °F 5 °F (2006)
Degree Days  
Heating Degree Days 34    
Moisture  
Dew Point 28 °F    
Average Humidity 90    
Maximum Humidity 100    
Minimum Humidity 81    
Precipitation  
Precipitation 0.00 in - - ()
Sea Level Pressure  
Sea Level Pressure 29.76 in    
Wind  
Wind Speed 8 mph ()    
Max Wind Speed 13 mph    
Max Gust Speed -    
Visibility 1.6 miles    
Events Fog , Snow    
Averages and records for this station are not official NWS values.
T = Trace of Precipitation, MM = Missing Value Source: Averaged Metar Reports

Daily Weather History Graph

Daily Weather History Graph

Search for Another Location

Airport or City:

Trip Planner

Search our weather history database for the weather conditions in past years. The results will help you decide how hot, cold, wet, or windy it might be!

Date:

Astronomy

Jan. 23, 2013 Rise Set
Actual Time 7:14 AM CET 4:27 PM CET
Civil Twilight 6:40 AM CET 5:01 PM CET
Nautical Twilight 6:03 AM CET 5:38 PM CET
Astronomical Twilight 5:27 AM CET 6:14 PM CET
Moon 1:20 PM CET (1/23) 4:14 AM CET (1/23)
Length of Visible Light 10h 20m
Length of Day
9h 13m
Waxing Gibbous, 87% of the Moon is Illuminated
Jan 23
Waxing Gibbous
Jan 27
Full
Feb 3
Last Quarter
Feb 10
New
Feb 17
First Quarter

Hourly Weather History & Observations

Time (CET) Temp. Windchill Dew Point Humidity Pressure Visibility Wind Dir Wind Speed Gust Speed Precip Events Conditions
12:15 AM 30.2 °F 22.1 °F 26.6 °F 86% 29.65 in 3.1 mi West 8.9 mph - N/A   Overcast
12:45 AM 30.2 °F 22.1 °F 26.6 °F 86% 29.65 in 3.1 mi WSW 8.9 mph - N/A   Mostly Cloudy
1:15 AM 30.2 °F 22.1 °F 26.6 °F 86% 29.65 in 3.7 mi WSW 8.9 mph - N/A   Mostly Cloudy
1:45 AM 30.2 °F 22.1 °F 26.6 °F 86% 29.65 in 3.7 mi WSW 8.9 mph - N/A   Mostly Cloudy
2:15 AM 30.2 °F 22.1 °F 26.6 °F 86% 29.68 in 3.7 mi West 8.9 mph - N/A   Overcast
2:45 AM 30.2 °F 22.1 °F 26.6 °F 86% 29.65 in 3.7 mi West 8.9 mph - N/A   Mostly Cloudy
3:15 AM 30.2 °F 19.9 °F 26.6 °F 86% 29.65 in 5.0 mi West 13.4 mph - N/A   Mostly Cloudy
3:45 AM 30.2 °F 20.9 °F 26.6 °F 86% 29.68 in 5.0 mi West 11.2 mph - N/A   Overcast
4:15 AM 30.2 °F 19.9 °F 26.6 °F 86% 29.68 in 3.7 mi West 13.4 mph - N/A   Overcast
4:37 AM 30.2 °F 20.9 °F 26.6 °F 86% 29.68 in 2.5 mi West 11.2 mph - N/A Snow Light Snow
4:45 AM 28.4 °F 17.6 °F 26.6 °F 93% 29.68 in 2.5 mi West 13.4 mph - N/A Snow Light Snow
5:15 AM 28.4 °F 17.6 °F 26.6 °F 93% 29.68 in 1.9 mi West 13.4 mph - N/A Snow Light Snow
5:26 AM 28.4 °F 17.6 °F 26.6 °F 93% 29.68 in 0.9 mi West 13.4 mph - N/A Snow Snow
5:45 AM - - - N/A% - 3.1 mi West 11.2 mph - N/A   Overcast
6:15 AM 28.4 °F 18.7 °F 26.6 °F 93% 29.71 in 0.9 mi West 11.2 mph - N/A Snow Snow
6:45 AM 28.4 °F 18.7 °F 26.6 °F 93% 29.71 in 0.9 mi West 11.2 mph - N/A Snow Snow
7:00 AM - - - N/A% - 3.1 mi West 11.2 mph - N/A   Overcast
7:10 AM 28.4 °F 18.7 °F 26.6 °F 93% 29.71 in 0.5 mi West 11.2 mph - N/A Snow Heavy Snow
7:15 AM 28.4 °F 18.7 °F 26.6 °F 93% 29.71 in 0.5 mi West 11.2 mph - N/A Snow Heavy Snow
7:45 AM 28.4 °F 17.6 °F 26.6 °F 93% 29.74 in 0.6 mi West 13.4 mph - N/A Snow Snow
8:15 AM 28.4 °F 18.7 °F 26.6 °F 93% 29.74 in 0.5 mi West 11.2 mph - N/A Snow Heavy Snow
8:45 AM - - - N/A% - 1.9 mi West 11.2 mph - N/A   Overcast
9:15 AM 28.4 °F 19.9 °F 26.6 °F 93% 29.77 in 0.7 mi West 8.9 mph - N/A Snow Snow
9:45 AM 30.2 °F 22.1 °F 26.6 °F 86% 29.77 in 0.9 mi West 8.9 mph - N/A Snow Light Snow
10:15 AM 30.2 °F 23.5 °F 26.6 °F 86% 29.77 in 0.9 mi West 6.7 mph - N/A Snow Light Snow
10:45 AM 30.2 °F 23.5 °F 28.4 °F 93% 29.77 in 1.2 mi West 6.7 mph - N/A Snow Light Snow
11:15 AM 30.2 °F 22.1 °F 28.4 °F 93% 29.77 in 1.2 mi WSW 8.9 mph - N/A Snow Light Snow
11:45 AM - - - N/A% - 3.1 mi WSW 8.9 mph - N/A   Overcast
12:15 PM 32.0 °F 23.2 °F 28.4 °F 87% 29.77 in 1.2 mi WSW 11.2 mph - N/A Snow Light Snow
1:00 PM 33.8 °F 26.5 °F 28.4 °F 81% 29.80 in 1.9 mi WSW 8.9 mph - N/A Snow Light Snow
1:15 PM 33.8 °F 25.4 °F 28.4 °F 81% 29.80 in 2.5 mi WSW 11.2 mph - N/A Snow Light Snow
1:37 PM 33.8 °F 26.5 °F 28.4 °F 81% 29.80 in 1.9 mi WSW 8.9 mph - N/A Snow Light Snow
1:45 PM 33.8 °F 26.5 °F 28.4 °F 81% 29.80 in 2.5 mi WSW 8.9 mph - N/A Snow Light Snow
2:15 PM 33.8 °F 26.5 °F 28.4 °F 81% 29.80 in 3.1 mi WSW 8.9 mph - N/A Snow Light Snow
2:45 PM - - - N/A% - 3.1 mi WSW 6.7 mph - N/A   Overcast
3:15 PM 33.8 °F 29.7 °F 30.2 °F 87% 29.80 in 1.9 mi WSW 4.5 mph - N/A Snow Light Snow
3:45 PM 33.8 °F 29.7 °F 30.2 °F 87% 29.80 in 0.9 mi SW 4.5 mph - N/A Snow Snow
4:00 PM - - - N/A% - 0.4 mi Variable 4.5 mph - N/A Fog Fog
4:15 PM 32.0 °F 27.6 °F 30.2 °F 93% 29.83 in 0.7 mi WSW 4.5 mph - N/A Snow Snow
4:45 PM 32.0 °F 27.6 °F 30.2 °F 93% 29.83 in 0.7 mi SW 4.5 mph - N/A Snow Light Snow
5:15 PM 32.0 °F - 30.2 °F 93% 29.83 in 0.6 mi Calm Calm - N/A Snow Light Snow
5:34 PM 32.0 °F - 30.2 °F 93% 29.83 in 0.5 mi SSW 2.2 mph - N/A Fog , Snow Light Snow
5:45 PM - - - N/A% - 0.4 mi Variable 4.5 mph - N/A Fog Light Freezing Fog
5:58 PM 32.0 °F 27.6 °F 30.2 °F 93% 29.83 in 0.4 mi South 4.5 mph - N/A Fog Fog
6:15 PM 32.0 °F - 30.2 °F 93% 29.83 in 0.4 mi SSE 2.2 mph - N/A Fog Fog
6:45 PM 32.0 °F - 30.2 °F 93% 29.83 in 0.5 mi South 2.2 mph - N/A Fog Fog
7:10 PM - - - N/A% - 0.5 mi Variable 4.5 mph - N/A Fog Fog
7:15 PM 32.0 °F - 30.2 °F 93% 29.83 in 0.5 mi SE 2.2 mph - N/A Fog Fog
7:45 PM 32.0 °F - 30.2 °F 93% 29.83 in 0.5 mi ESE 2.2 mph - N/A Fog Fog
8:15 PM 32.0 °F - 30.2 °F 93% 29.83 in 0.4 mi ENE 2.2 mph - N/A Fog Fog
8:45 PM - - - N/A% - 0.5 mi Variable 4.5 mph - N/A Fog Fog
9:15 PM 32.0 °F 27.6 °F 32.0 °F 100% 29.83 in 0.4 mi NE 4.5 mph - N/A Fog Fog
9:45 PM 32.0 °F 27.6 °F 32.0 °F 100% 29.83 in 0.4 mi ENE 4.5 mph - N/A Fog Fog
10:15 PM 32.0 °F 27.6 °F 32.0 °F 100% 29.83 in 0.4 mi ENE 4.5 mph - N/A Fog Fog
10:45 PM 32.0 °F 27.6 °F 32.0 °F 100% 29.83 in 0.4 mi ENE 4.5 mph - N/A Fog Fog
11:15 PM 32.0 °F 27.6 °F 32.0 °F 100% 29.83 in 0.4 mi ENE 4.5 mph - N/A Fog Fog
11:45 PM - - - N/A% - 0.5 mi North - - N/A Fog Fog